Flag for U.S.A. Weather past 2 weeks in Manassas, Virginia, U.S.A.

Now
27 °F

Clear.


Feels Like: 27 °F
Forecast: 21 / 40 °F
Wind: No wind

Location: Manassas Municipal

Current Time: Dec 19, 2014 at 11:13:24 PM

Latest Report: Dec 19, 2014 at 10:55 PM


Visibility: 10 mi

Pressure: 30.27 "Hg

Humidity: 93%

Dew point: 25 °F

Location of ManassasLocation

Historic Weather in Manassas — Graph

°F

Manassas temperature yesterday

Maximum temperature yesterday: 39 °F (at 12:45 PM)
Minimum temperature yesterday: 34 °F (at 12:35 AM)
Average temperature yesterday: 36 °F

Past Weeks' High & Low Weather Summary

 TemperatureHumidityPressure
High140 °F (Dec 9, 2:45 PM)100% (Dec 4, 9:15 PM)30.59 "Hg (Dec 4, 9:15 PM)
Low23 °F (Dec 13, 6:35 AM)4% (Dec 9, 2:45 PM)29.83 "Hg (Dec 10, 2:15 PM)
Average39 °F75%30.13 "Hg
* Reported Dec 4 9:15 PM — Dec 19 9:55 PM, Manassas, Weather by CustomWeather, © 2014

Note: Actual official high and low records may vary slightly from our data, if they occured in-between our weather recording intervals... More about our weather records

Advertising

Manassas weather history for previous 24 hours

 ConditionsComfort  
Time TempWeatherWind HumidityBarometerVisibility
9:55 PM
Dec 19
28 °FClear.3 mph86%30.26 "Hg10 mi
9:35 PM28 °FClear.No wind86%30.26 "Hg10 mi
9:15 PM28 °FClear.No wind86%30.26 "Hg10 mi
8:55 PM27 °FClear.3 mph93%30.25 "Hg10 mi
8:35 PM30 °FClear.5 mph80%30.24 "Hg10 mi
8:15 PM28 °FClear.No wind93%30.24 "Hg10 mi
5:45 PM36 °FClear.10 mph65%30.20 "Hg10 mi
4:45 PM37 °FPartly sunny.7 mph60%30.19 "Hg10 mi
3:50 PM39 °FScattered clouds.14 mph56%30.17 "Hg10 mi
2:45 PM39 °FOvercast.10 mph56%30.16 "Hg10 mi
1:45 PM39 °FOvercast.12 mph61%30.14 "Hg10 mi
12:45 PM37 °FOvercast.15 mph60%30.16 "Hg10 mi
11:45 AM37 °FOvercast.18 mph60%30.17 "Hg10 mi
10:45 AM37 °FOvercast.10 mph60%30.19 "Hg10 mi
8:45 AM36 °FOvercast.15 mph65%30.18 "Hg10 mi
7:50 AM36 °FOvercast.10 mph65%30.18 "Hg10 mi
6:55 AM34 °FMostly cloudy.10 mph70%30.15 "Hg10 mi
6:35 AM34 °FOvercast.13 mph70%30.14 "Hg10 mi
6:15 AM34 °FOvercast.16 mph70%30.13 "Hg10 mi
5:55 AM34 °FOvercast.14 mph70%30.13 "Hg10 mi
5:35 AM34 °FOvercast.9 mph70%30.13 "Hg10 mi
5:15 AM34 °FOvercast.5 mph70%30.13 "Hg10 mi
4:55 AM34 °FOvercast.6 mph70%30.13 "Hg10 mi
4:35 AM36 °FOvercast.7 mph65%30.13 "Hg10 mi
4:15 AM36 °FOvercast.7 mph65%30.12 "Hg10 mi
3:55 AM34 °FOvercast.8 mph70%30.13 "Hg10 mi
3:35 AM34 °FOvercast.6 mph70%30.13 "Hg10 mi
3:15 AM34 °FOvercast.6 mph70%30.13 "Hg10 mi
2:55 AM34 °FOvercast.5 mph70%30.14 "Hg10 mi
2:35 AM36 °FOvercast.6 mph65%30.14 "Hg10 mi
2:15 AM34 °FOvercast.6 mph70%30.14 "Hg10 mi
1:55 AM34 °FOvercast.6 mph70%30.13 "Hg10 mi
1:35 AM34 °FOvercast.7 mph70%30.12 "Hg10 mi
1:15 AM34 °FOvercast.10 mph70%30.12 "Hg10 mi
12:55 AM34 °FMostly cloudy.8 mph70%30.12 "Hg10 mi
12:35 AM34 °FOvercast.9 mph70%30.12 "Hg10 mi
12:15 AM34 °FOvercast.7 mph70%30.13 "Hg10 mi
11:55 PM
Dec 18
34 °FOvercast.7 mph75%30.13 "Hg10 mi
11:35 PM34 °FOvercast.7 mph70%30.13 "Hg10 mi
11:15 PM34 °FOvercast.7 mph70%30.13 "Hg10 mi
Weather by CustomWeather, © 2014

See weather overviewHow to use our weather pages